Weather History for Cortez, CO

Change the Weather History Date:

Wednesday, May 7, 2014

  Actual Average Record
Temperature  
Mean Temperature 47 °F 53 °F  
Max Temperature 63 °F 72 °F 80 °F (2011)
Min Temperature 31 °F 35 °F 26 °F (1999)
Degree Days  
Heating Degree Days 18 12  
Month to date heating degree days 81 90  
Since 1 July heating degree days 5968 6160  
Cooling Degree Days 0 0  
Month to date cooling degree days 0 0  
Year to date cooling degree days 0 0  
Moisture  
Dew Point 20 °F    
Average Humidity 39    
Maximum Humidity 63    
Minimum Humidity 14    
Precipitation  
Precipitation 0.00 in 0.04 in 0.01 in (2013)
Month to date precipitation 0.00 0.29  
Year to date precipitation 1.87 4.51  
Sea Level Pressure  
Sea Level Pressure 29.69 in    
Wind  
Wind Speed 11 mph (SW)    
Max Wind Speed 28 mph    
Max Gust Speed 40 mph    
Visibility 10 miles    
Events      
T = Trace of Precipitation, MM = Missing Value Source: NWS Daily Summary

Daily Weather History Graph

Daily Weather History Graph

Search for Another Location

Airport:

Trip Planner

Search our weather history database for the weather conditions in past years. The results will help you decide how hot, cold, wet, or windy it might be!

Date:

Astronomy

May. 07, 2014 Rise Set
Actual Time 6:13 AM MDT 8:09 PM MDT
Civil Twilight 5:44 AM MDT 8:38 PM MDT
Nautical Twilight 5:09 AM MDT 9:12 PM MDT
Astronomical Twilight 4:32 AM MDT 9:50 PM MDT
Moon 1:26 PM MDT (5/7) 2:04 AM MDT (5/7)
Length of Visible Light 14h 53m
Length of Day
13h 56m
First Quarter, 56% of the Moon is Illuminated
May 7
First Quarter
May 14
Full
May 21
Last Quarter
May 28
New
Jun 5
First Quarter

Hourly Weather History & Observations

Time (MDT) Temp. Windchill Dew Point Humidity Pressure Visibility Wind Dir Wind Speed Gust Speed Precip Events Conditions
12:53 AM 46.9 °F - 18.0 °F 32% 29.61 in 10.0 mi South 9.2 mph - N/A   Clear
1:53 AM 39.9 °F 35.1 °F 19.9 °F 45% 29.62 in 10.0 mi ENE 6.9 mph - N/A   Clear
3:53 AM 34.0 °F 31.0 °F 19.9 °F 56% 29.65 in 8.0 mi Variable 3.5 mph - N/A   Clear
4:53 AM 30.9 °F - 19.9 °F 64% 29.67 in 10.0 mi Calm Calm - N/A   Clear
5:53 AM 33.1 °F 26.9 °F 21.9 °F 64% 29.67 in 10.0 mi ENE 6.9 mph - N/A   Clear
6:53 AM 35.1 °F 31.0 °F 23.0 °F 61% 29.67 in 10.0 mi NE 4.6 mph - N/A   Clear
7:53 AM 46.0 °F 44.8 °F 25.0 °F 44% 29.66 in 10.0 mi Variable 3.5 mph - N/A   Clear
8:53 AM 51.1 °F - 23.0 °F 33% 29.66 in 10.0 mi SW 17.3 mph 25.3 mph N/A   Clear
9:53 AM 53.1 °F - 23.0 °F 31% 29.66 in 10.0 mi SSW 17.3 mph 24.2 mph N/A   Partly Cloudy
10:53 AM 54.0 °F - 21.9 °F 29% 29.67 in 10.0 mi SSW 23.0 mph 27.6 mph N/A   Scattered Clouds
12:53 PM 57.9 °F - 12.9 °F 17% 29.66 in 10.0 mi South 23.0 mph 35.7 mph N/A   Mostly Cloudy
1:53 PM 57.0 °F - 12.9 °F 18% 29.68 in 10.0 mi SW 18.4 mph 31.1 mph N/A   Mostly Cloudy
2:53 PM 55.9 °F - 16.0 °F 21% 29.69 in 10.0 mi SSW 19.6 mph 31.1 mph N/A   Overcast
3:29 PM 52.0 °F - 21.0 °F 30% 29.81 in 10.0 mi SSW 15.0 mph 36.8 mph N/A   Overcast
3:53 PM 54.0 °F - 19.9 °F 26% 29.69 in 10.0 mi Variable 5.8 mph - N/A   Overcast
4:53 PM 57.0 °F - 10.0 °F 15% 29.69 in 10.0 mi SW 15.0 mph 21.9 mph N/A   Partly Cloudy
5:53 PM 57.0 °F - 9.0 °F 15% 29.68 in 10.0 mi WSW 13.8 mph 28.8 mph N/A   Partly Cloudy
6:53 PM 55.0 °F - 12.0 °F 18% 29.70 in 10.0 mi WSW 13.8 mph 26.5 mph N/A   Mostly Cloudy
7:53 PM 53.1 °F - 16.0 °F 23% 29.70 in 10.0 mi WSW 11.5 mph 20.7 mph N/A   Overcast
8:53 PM 51.1 °F - 19.9 °F 29% 29.71 in 10.0 mi West 10.4 mph 18.4 mph N/A   Mostly Cloudy
9:53 PM 50.0 °F - 27.0 °F 41% 29.75 in 10.0 mi West 16.1 mph 26.5 mph N/A   Overcast
10:53 PM 46.9 °F - 28.9 °F 50% 29.78 in 10.0 mi SSW 9.2 mph - N/A   Mostly Cloudy
11:53 PM 45.0 °F 39.7 °F 28.9 °F 53% 29.78 in 10.0 mi SSW 10.4 mph - N/A   Mostly Cloudy